Location: Arborea
(39.7744°N, 8.5819°E)
Time: 20:09:03
(UTC+00:00)

CZ-2C DEB - Pass Details

Date: 26 August 2022
Orbit: 681 x 927 km, 97.9° (Epoch: 03 October)

Event Time Altitude Azimuth Distance (km) Brightness Sun altitude
Rises 19:43:11 0° 35° (NE) 3,381 ? -18.0°
Reaches altitude 10° 19:46:55 10° 62° (ENE) 2,496 ? -18.6°
Enters shadow 19:47:09 11° 64° (ENE) 2,461 ? -18.7°
